Regional Weather Roundup
Issued by NWS

Home | Current Version | Previous Version | Text Only | Print | Product List | Glossary Off
Versions: 1 2 3 4 5 6 7 8 9 10 11 12 13 14 15 16 17 18 19 20 21 22 23 24 25 26 27 28 29 30 31 32 33 34 35 36 37 38 39 40 41 42 43 44 45 46 47 48 49 50

000
ASUS43 KLSX 280110
RWRMO

WEATHER SUMMARY FOR MISSOURI
NATIONAL WEATHER SERVICE SPRINGFIELD MO
700 PM CST MON FEB 27 2017

NOTE: "FAIR" INDICATES FEW OR NO CLOUDS BELOW 12,000 FEET WITH NO
       SIGNIFICANT WEATHER AND/OR OBSTRUCTIONS TO VISIBILITY.
       CURRENT SKY AND/OR WEATHER CONDITIONS ARE NOT AVAILABLE FOR
       CHILLICOTHE AND FARMINGTON.

MOZ001>031-035>038-043-044-053-054-280200-
...NORTHERN AND WESTERN MISSOURI...

CITY           SKY/WX    TMP DP  RH WIND       PRES   REMARKS
KANSAS CTY INT PTCLDY    56  40  55 S13       29.78S
KANSAS C DTWN  PTCLDY    61  43  51 S8        29.79R
LEE`S SUMMIT   PTCLDY    60  45  57 S14       29.80S
ST JOSEPH      PTCLDY    54  35  48 SE8       29.77F
CHILLICOTHE      N/A     57  33  40 SE7       29.83F
KIRKSVILLE     CLOUDY    54  31  41 E9        29.87F

$$
MOZ066>068-077>081-088>096-101>105-280200-
...SOUTHWEST MISSOURI...

CITY           SKY/WX    TMP DP  RH WIND       PRES   REMARKS
SPRINGFIELD    CLOUDY    62  48  60 S21G29    29.88S
JOPLIN         CLOUDY    63  53  70 S10G21    29.84F
BRANSON        MOCLDY    57  48  72 S20G28    29.95S

$$
MOZ032>034-039>042-045>050-055>058-069>072-280200-
...CENTRAL MISSOURI...

CITY           SKY/WX    TMP DP  RH WIND       PRES   REMARKS
COLUMBIA       CLOUDY    61  37  41 S12       29.89S
JEFFERSON CITY MOCLDY    61  38  42 SE9       29.89S
ROLLA          PTCLDY    57  39  51 SE9       29.92F
SEDALIA        MOCLDY    60  40  47 SE13      29.86F
WHITEMAN AFB   MOCLDY    57  43  59 S9        29.82F
WARRENSBURG    PTCLDY    57  43  58 SE8       29.83S

$$
MOZ051-052-059>065-280200-
...EAST CENTRAL MISSOURI...

CITY           SKY/WX    TMP DP  RH WIND       PRES   REMARKS
ST LOUIS INTL  PTCLDY    60  44  55 SE18      29.98S
SPIRIT OF STL  CLEAR     61  44  53 SE7       29.95F
ST CHARLES     CLEAR     58  44  60 SE15      29.96S

$$
MOZ072>076-082>087-097>100-106>115-280200-
...SOUTH CENTRAL AND SOUTHEAST MISSOURI...

CITY           SKY/WX    TMP DP  RH WIND       PRES   REMARKS
CAPE GIRARDEAU PTCLDY    54  46  74 S7        30.04F
FARMINGTON     CLEAR     55  48  77 S12       30.03R
POPLAR BLUFF   PTCLDY    56  50  80 S5        30.04F
WEST PLAINS    CLOUDY    54  48  80 SE10      30.00S

$$



USA.gov is the U.S. government's official web portal to all federal, state and local government web resources and services.